Regional Weather Roundup
Issued by NWS

Home | Current Version | Previous Version | Graphics & Text | Print | Product List | Glossary On
Versions: 1 2 3 4 5 6 7 8 9 10 11 12 13 14 15 16 17 18 19 20 21 22 23 24 25 26 27 28 29 30 31 32 33 34 35 36 37 38 39 40 41 42 43 44 45 46 47 48 49 50
000
ASUS43 KIND 120159
RWRIN

WEATHER ROUNDUP FOR INDIANA
NATIONAL WEATHER SERVICE INDIANAPOLIS IN
1000 PM EDT FRI JUL 11 2014

NOTE: "FAIR" INDICATES FEW OR NO CLOUDS BELOW 12,000 FEET WITH NO
SIGNIFICANT WEATHER AND/OR OBSTRUCTIONS TO VISIBILITY.

* - STATION DOES NOT REPORT WEATHER SUCH AS PRECIPITATION OR FOG.

+ - STATION NOT QUALITY CONTROLLED BY THE NATIONAL WEATHER SERVICE.
    USE DATA WITH CAUTION...ESPECIALLY DEWPOINT AND RELATIVE
    HUMIDITY OBSERVATIONS.

INZ001>003-010>013-019-020-120300-
NORTHWEST INDIANA

CITY           SKY/WX    TMP DP  RH WIND       PRES   REMARKS
GARY /AIRPORT/ CLOUDY    75  61  60 SE5       30.12F
KNOX *+        CLOUDY    71  63  76 CALM      30.14S
MONTICELLO +   PTCLDY    69  62  79 CALM      30.14S
RENSSELAER +   PTCLDY    72  64  78 SE3       30.13F
VALPARAISO     CLOUDY    72  59  63 SE3       30.14S

$$

LMZ046-743>745-120300-
SOUTHERN LAKE MICHIGAN

STATION/POSITION TIME  TEMP WIND        PRES
                       AIR  DIR/SP/G
                 (UTC) (F)  (DEG/KT/KT) (MB)
MICHIGAN CITY    0100   75  160/  4/  6   N/A

$$

INZ004-005-014>016-021>024-120300-
NORTH CENTRAL INDIANA

CITY           SKY/WX    TMP DP  RH WIND       PRES   REMARKS
GOSHEN         CLOUDY    72  63  73 CALM      30.16R
SOUTH BEND     LGT RAIN  72  61  68 CALM      30.16R
WARSAW +       CLOUDY    70  63  78 CALM      30.16R

$$

INZ006>009-017-018-025>027-120300-
NORTHEAST INDIANA

CITY           SKY/WX    TMP DP  RH WIND       PRES   REMARKS
ANGOLA *+      PTCLDY    70  64  83 CALM      30.17R
FORT WAYNE     CLOUDY    73  61  65 S3        30.16S

$$

INZ028-029-035-036-043>045-051>053-120300-
WEST CENTRAL INDIANA

CITY           SKY/WX    TMP DP  RH WIND       PRES   REMARKS
GREENCASTLE +  CLEAR     70  61  73 CALM      30.17S
LAFAYETTE      CLEAR     70  62  76 CALM      30.14S
TERRE HAUTE    CLEAR     70  65  84 CALM      30.15R

$$

INZ030>032-037>040-046>048-054>057-064-065-120300-
CENTRAL INDIANA

CITY           SKY/WX    TMP DP  RH WIND       PRES   REMARKS
COLUMBUS       CLEAR     70  66  88 CALM      30.17R
INDIANAPOLIS   PTCLDY    75  58  55 SW5       30.16R
-EAGLE CREEK   CLEAR     73  61  65 CALM      30.16R
KOKOMO *+      MOCLDY    70  61  73 CALM      30.17R
MT COMFORT *+  CLEAR     70  63  78 CALM      30.17R
SHELBYVILLE    CLEAR     71  63  75 E3        30.16R

$$

INZ033-034-041-042-049-050-058-059-120300-
EAST CENTRAL INDIANA

CITY           SKY/WX    TMP DP  RH WIND       PRES   REMARKS
MUNCIE         PTCLDY    75  56  51 CALM      30.17R

$$

INZ060-061-067>069-081>083-085>088-120300-
SOUTHWEST INDIANA

CITY           SKY/WX    TMP DP  RH WIND       PRES   REMARKS
EVANSVILLE     CLEAR     79  64  60 CALM      30.14R
HUNTINGBURG *+ CLEAR     72  63  73 SE5       30.15S

$$

INZ062-063-066-070>080-084-089>092-120300-
SOUTH CENTRAL AND SOUTHEAST INDIANA

CITY           SKY/WX    TMP DP  RH WIND       PRES   REMARKS
BLOOMINGTON    CLEAR     67  63  87 CALM      30.17R

$$




USA.gov is the U.S. government's official web portal to all federal, state and local government web resources and services.